Regional Weather Roundup
Issued by NWS Kansas City/Pleasant Hill, MO

Home | Current Version | Previous Version | Graphics & Text | Print | Product List | Glossary Off
Versions: 1 2 3 4 5 6 7 8 9 10 11 12 13 14 15 16 17 18 19 20 21 22 23 24 25 26 27 28 29 30 31 32 33 34 35 36 37 38 39 40 41 42 43 44 45 46 47 48 49 50

040
ASUS43 KEAX 262110
RWREAX

WEATHER ROUNDUP FOR EASTERN KANSAS AND NORTHWEST MISSOURI
NATIONAL WEATHER SERVICE KANSAS CITY/PLEASANT HILL MO
400 PM CDT FRI MAY 26 2017

KSZ040-057-103>105-MOZ028-029-037-043-262200-
...KANSAS CITY METROPOLITAN AREA...

CITY           SKY/WX    TMP DP  RH WIND       PRES   REMARKS
K.C. INTL      PTSUNNY   82  65  56 N9        29.77R
K.C. DOWNTOWN  MOSUNNY   83  64  52 N5        29.75R
LEES SUMMIT    PTSUNNY   81  66  60 N7        29.77R
OLATHE - IXD   MOSUNNY   82  65  56 CALM      29.77S
OLATHE - OJC   MOSUNNY   83  65  54 VRB7      29.77R
LAWRENCE       MOSUNNY   86  66  51 VRB7      29.76S

$$

MOZ001>008-011>017-020>025-030>033-038>040-044>046-053-054-262200-
...NORTHERN AND CENTRAL MISSOURI...

CITY           SKY/WX    TMP DP  RH WIND       PRES   REMARKS
ST. JOSEPH     PTSUNNY   84  65  52 E6        29.76R
MOSBY          PTCLDY    81  59  47 CALM      29.76R
WARRENSBURG    MOSUNNY   81  63  54 CALM      29.76R
WHITEMAN AFB   PTSUNNY   80  68  67 NW7       29.75R
CLINTON        PTSUNNY   81  66  61 SW3       29.76S
SEDALIA        CLOUDY    80  68  66 CALM      29.77R
WARSAW         NOT AVBL
CHILLICOTHE      N/A     84  66  54 VRB5      29.76R
KIRKSVILLE     SUNNY     81  65  58 NW9       29.76R

$$

MOZ041-047>049-056>058-063>065-088>090-097-262200-
...EASTERN AND SOUTHERN MISSOURI...

CITY           SKY/WX    TMP DP  RH WIND       PRES   REMARKS
ST. LOUIS INTL CLOUDY    81  65  58 S9        29.74S
SPIRIT OF STL  CLOUDY    79  67  66 S13       29.73R
COLUMBIA       CLOUDY    79  68  69 W7        29.76R
JEFFERSON CITY PTSUNNY   82  66  58 CALM      29.74R
ROLLA          CLOUDY    76  68  76 W8        29.76S
OSAGE BEACH    CLOUDY    78  68  71 W5        29.77S
SPRINGFIELD    CLOUDY    80  68  66 W7        29.77R
BRANSON        PTSUNNY   82  68  61 W5        29.79S
JOPLIN         PTSUNNY   84  71  65 W6        29.76S
WEST PLAINS    CLOUDY    76  66  71 SW8G17    29.81S

$$

IAZ060-094-KSZ022-034>040-054-083-096-NEZ052-066-093-262200-
...KANSAS...SOUTHEAST NEBRASKA AND IOWA...

CITY           SKY/WX    TMP DP  RH WIND       PRES   REMARKS
TOPEKA         MOSUNNY   85  65  51 N7        29.76S
MANHATTAN      SUNNY     84  62  47 VRB7      29.78S
EMPORIA        MOSUNNY   83  64  52 N8        29.78S
CHANUTE        MOSUNNY   84  65  52 NW5       29.76S
WICHITA        MOSUNNY   86  60  41 N9        29.78S
OMAHA          MOSUNNY   80  51  36 NW14      29.80R
LINCOLN        SUNNY     80  51  36 NE9       29.82S
FALLS CITY     PTSUNNY   85  61  44 NE7       29.76S
LAMONI         MOSUNNY   80  61  52 VRB3      29.77R
DES MOINES     MOSUNNY   81  58  45 N7        29.75S

$$





USA.gov is the U.S. government's official web portal to all federal, state and local government web resources and services.